Regional Weather Roundup
Issued by NWS

Home | Current Version | Previous Version | Graphics & Text | Print | Product List | Glossary On
Versions: 1 2 3 4 5 6 7 8 9 10 11 12 13 14 15 16 17 18 19 20 21 22 23 24 25 26 27 28 29 30 31 32 33 34 35 36 37 38 39 40 41 42 43 44 45 46 47 48 49 50
000
ASUS43 KFSD 200402
RWRSD

WEATHER ROUNDUP FOR SOUTH DAKOTA
NATIONAL WEATHER SERVICE SIOUX FALLS SD
1100 PM CDT TUE SEP 19 2017

NOTE: "FAIR" INDICATES FEW OR NO CLOUDS BELOW 12,000 FEET WITH NO
SIGNIFICANT WEATHER AND/OR OBSTRUCTIONS TO VISIBILITY.


SDZ001>005-009-010-012>017-200500-
NORTHWEST AND NORTH CENTRAL SOUTH DAKOTA

CITY           SKY/WX    TMP DP  RH WIND       PRES   REMARKS
BUFFALO          N/A     43  42  97 W8        29.64F
FAITH            N/A     48  47  96 W12       29.68S
MOBRIDGE       LGT RAIN  55  52  89 W18G24    29.56F
$$

SDZ012>016-024>037-041>051-057-063-072>074-200500-
SOUTHWEST AND SOUTH CENTRAL SOUTH DAKOTA

CITY           SKY/WX    TMP DP  RH WIND       PRES   REMARKS
RAPID CTY ARPT CLEAR     45  41  87 NW8       29.73S
PIERRE         PTCLDY    57  50  77 NW25      29.57S
CUSTER         CLEAR     42  33  70 W7        29.77F
ELLSWORTH AFB  CLEAR     44  44 100 N7        29.73R
PHILIP         CLOUDY    53  50  89 NW20G26   29.68R
SPEARFISH      FAIR      45  37  76 W6        29.74F
WINNER         MOCLDY    64  48  56 W12       29.62S
$$

SDZ004>011-016>023-039-040-200500-
NORTHEAST SOUTH DAKOTA

CITY           SKY/WX    TMP DP  RH WIND       PRES   REMARKS
ABERDEEN       CLOUDY    63  55  75 NW16G28   29.53R
WATERTOWN      TSTM      64  64 100 SW18      29.47R FOG
BROOKINGS      CLOUDY    74  67  78 S26       29.42F
SISSETON         N/A     69  66  90 SW8       29.40S
$$

SDZ017-020-022-023-036>040-048>070-200500-
SOUTHEAST SOUTH DAKOTA

CITY           SKY/WX    TMP DP  RH WIND       PRES   REMARKS
SIOUX FALLS    CLOUDY    78  69  73 S23G38    29.45S
HURON          CLOUDY    65  54  67 N15       29.55R
CHAMBERLAIN    CLOUDY    66  48  52 W20G26    29.58S
MITCHELL       TSTM      62  58  86 NW10G20   29.60R
YANKTON        CLEAR     79  69  71 S25G33    29.44R
$$

ABBREVIATIONS USED IN REMARKS
   TC - TEMPERATURE IN CELSIUS
  WCI - WIND CHILL INDEX
   HX - HEAT INDEX
  VSB - VISIBILITY




USA.gov is the U.S. government's official web portal to all federal, state and local government web resources and services.